RADUGA 24 [-]

Last updated on Jan. 23, 2021, 7:21 a.m. UTC

1 20367U 89098A   21022.49969405  .00000096  00000-0  00000-0 0  9990
2 20367  14.5385 349.4098 0002398  20.7149 340.7483  1.00306386113201
UTC
Height (km)
Latitude
Longitude
Inclination
Orbital Period
UTC large
Height (km)
Speed (km/s)
/
Latitude / Longitude
Inclination (degrees)
Orbital Period (minutes)
Azimuth
Elevation
Range (km)
Doppler Factor
iOS Compass Heading
iOS Angle

Next 30 passes for location: Hong Kong

Rise time Rise Azimuth (degrees) Set time Set Azimuth (degrees) Duration Max altitude (degrees)

No matching passes for this satellites